FW1924 Weather Reports


time (UTC)temp
F
wind
direction
speed
knots
gust
knots
rain 1hr
in
rain 24hr
in
rain mn
in
humidity
%
barometer
mb
20260505124552 50 191 5.2 14.8 0.00 0.04 0.04 76 1000.1
20260505123046 50 159 7.0 13.0 0.00 0.04 0.04 77 999.7
20260505121534 49 191 2.6 5.2 0.00 0.04 0.04 76 999.7
20260505120035 49 174 2.6 11.3 0.00 0.04 0.04 75 999.8
20260505114536 49 155 9.6 13.9 0.01 0.04 0.04 76 999.8
20260505113036 49 196 6.1 17.4 0.02 0.04 0.04 78 999.5
20260505111530 49 209 9.6 14.8 0.03 0.04 0.04 79 999.4
20260505101514 52 188 3.5 7.8 0.01 0.01 0.01 72 999.8
20260505100105 52 220 1.7 5.2 0.00 0.00 0.00 71 999.9
20260505094556 52 218 1.7 4.3 0.00 0.00 0.00 71 1000.0
20260505093100 52 198 3.5 7.0 0.00 0.00 0.00 70 999.8
20260505091547 52 227 2.6 5.2 0.00 0.00 0.00 71 999.8
20260505090048 53 209 2.6 6.1 0.00 0.00 0.00 69 1000.0
20260505084545 53 225 2.6 5.2 0.00 0.00 0.00 69 1000.1
20260505083007 53 144 7.0 13.0 0.00 0.00 0.00 67 1000.2
20260505081506 53 181 8.7 15.6 0.00 0.00 0.00 66 1000.2
20260505080004 54 153 9.6 20.9 0.00 0.00 0.00 64 1000.3
20260505074502 54 149 8.7 20.9 0.00 0.00 0.00 61 1000.1
20260505073055 55 161 10.4 18.2 0.00 0.00 0.00 56 1000.1
20260505071551 55 148 13.0 19.1 0.00 0.00 0.00 56 1000.0
20260505070035 55 188 11.3 18.2 0.00 0.00 0.00 56 999.9
20260505064525 54 157 13.0 21.7 0.00 0.00 0.00 58 999.9
20260505063017 54 158 8.7 23.5 0.00 0.00 0.00 58 999.8
20260505061519 54 209 12.2 25.2 0.00 0.00 0.00 58 999.8
20260505060004 55 154 14.8 23.5 0.00 0.00 0.00 59 999.8
20260505054556 55 165 14.8 22.6 0.00 0.00 0.00 58 999.8
20260505053054 56 148 10.4 19.1 0.00 0.00 0.00 59 999.8
20260505051554 57 136 10.4 20.0 0.00 0.00 0.00 58 999.6
20260505041537 59 188 7.8 13.9 0.00 0.00 0.00 45 998.9
20260505040037 59 176 7.8 14.8 0.00 0.00 0.00 46 998.7
20260505034528 59 192 7.8 13.9 0.00 0.00 0.00 46 998.6
20260505033020 60 223 10.4 17.4 0.00 0.00 0.00 46 998.5
20260505031524 61 183 7.8 14.8 0.00 0.00 0.00 45 998.3
20260505030012 61 189 7.8 13.9 0.00 0.00 0.00 44 998.2
20260505024504 62 155 10.4 15.6 0.00 0.00 0.00 42 998.0
20260505023101 62 185 6.1 17.4 0.00 0.00 0.00 41 998.0
20260505021549 63 169 11.3 21.7 0.00 0.00 0.00 41 997.4
20260505020049 63 150 8.7 17.4 0.00 0.00 0.00 40 997.4
20260505014538 64 188 0.9 4.3 0.00 0.00 0.00 38 997.4
20260505013037 64 130 0.9 2.6 0.00 0.00 0.00 39 997.6
20260505011540 65 55 0.0 0.9 0.00 0.00 0.00 40 997.8
20260505010040 65 55 0.0 1.7 0.00 0.00 0.00 41 998.0
20260505004519 65 53 1.7 5.2 0.00 0.00 0.00 39 998.2
20260505003011 65 53 1.7 11.3 0.00 0.00 0.00 38 998.3
20260505001503 65 48 8.7 13.9 0.00 0.00 0.00 37 998.3
20260505000056 66 40 5.2 9.6 0.00 0.00 0.00 36 998.2
20260504234547 68 52 5.2 10.4 0.00 0.00 0.00 35 998.3
20260504233040 69 74 1.7 8.7 0.00 0.00 0.00 33 998.5
20260504231544 69 52 3.5 11.3 0.00 0.00 0.00 34 998.2
20260504230040 68 95 5.2 9.6 0.00 0.00 0.00 35 998.2
20260504224524 69 67 5.2 12.2 0.00 0.00 0.00 34 998.3
20260504223016 68 227 3.5 7.0 0.00 0.00 0.00 31 998.2
20260504221519 67 205 4.3 12.2 0.00 0.00 0.00 31 998.2
20260504220007 67 229 4.3 13.0 0.00 0.00 0.00 32 998.1
20260504214505 66 225 5.2 13.9 0.00 0.00 0.00 32 998.3
20260504213005 67 210 4.3 18.2 0.00 0.00 0.00 32 998.4
20260504211604 68 236 8.7 20.9 0.00 0.00 0.00 30 998.4
20260504210055 69 225 6.1 11.3 0.00 0.00 0.00 26 998.6
20260504204550 70 200 4.3 10.4 0.00 0.00 0.00 25 998.6
20260504203050 71 182 7.8 13.9 0.00 0.00 0.00 28 998.6
20260504201544 73 211 1.7 6.1 0.00 0.00 0.00 29 998.7
20260504200037 73 175 1.7 6.1 0.00 0.00 0.00 29 998.8
20260504194531 75 231 0.9 6.1 0.00 0.00 0.00 27 998.9
20260504193023 76 171 3.5 7.8 0.00 0.00 0.00 26 999.1
20260504191531 75 178 2.6 10.4 0.00 0.00 0.00 29 998.9
20260504190008 73 235 3.5 13.0 0.00 0.00 0.00 29 999.2
20260504184600 73 107 0.9 6.1 0.00 0.00 0.00 34 999.7
20260504183051 73 160 1.7 12.2 0.00 0.00 0.00 30 999.7
20260504181546 74 185 7.0 13.0 0.00 0.00 0.00 29 1000.0
20260504180042 75 155 7.8 14.8 0.00 0.00 0.00 30 999.8
20260504174546 73 139 7.8 11.3 0.00 0.00 0.00 30 999.8
20260504173035 73 123 7.8 13.9 0.00 0.00 0.00 32 1000.1
20260504171533 72 128 10.4 13.0 0.00 0.00 0.00 33 1000.3